Year,Month,Day,Hour,Minute,Value (Times are PST for temperature in C)
2009,10,15,12,29,11.70
2009,10,15,12,30,11.80
2009,10,15,12,31,11.80
2009,10,15,12,32,11.80
2009,10,15,12,33,11.80
2009,10,15,12,34,11.80
2009,10,15,12,35,11.80
2009,10,15,12,36,11.80
2009,10,15,12,37,11.90
2009,10,15,12,38,11.90
2009,10,15,12,39,11.90
2009,10,15,12,40,12.00
2009,10,15,12,41,12.00
2009,10,15,12,42,12.00
2009,10,15,12,43,12.00
2009,10,15,12,44,12.00
2009,10,15,12,45,12.00
2009,10,15,12,46,12.10
2009,10,15,12,47,12.10
2009,10,15,12,48,12.10
2009,10,15,12,49,12.10
2009,10,15,12,50,12.20
2009,10,15,12,51,12.20
2009,10,15,12,52,12.20
2009,10,15,12,53,12.30
2009,10,15,12,54,12.30
2009,10,15,12,55,12.30
2009,10,15,12,56,12.30
2009,10,15,12,57,12.30
2009,10,15,12,58,12.30
2009,10,15,12,59,12.40
2009,10,15,13,00,12.40
2009,10,15,13,01,12.40
2009,10,15,13,02,12.50
2009,10,15,13,03,12.50
2009,10,15,13,04,12.60
2009,10,15,13,05,12.60
2009,10,15,13,06,12.60
2009,10,15,13,07,12.60
2009,10,15,13,08,12.60
2009,10,15,13,09,12.60
2009,10,15,13,10,12.60
2009,10,15,13,11,12.60
2009,10,15,13,12,12.60
2009,10,15,13,13,12.60
2009,10,15,13,14,12.60
2009,10,15,13,15,12.60
2009,10,15,13,16,12.50
2009,10,15,13,17,12.40
2009,10,15,13,18,12.30
2009,10,15,13,19,12.20
2009,10,15,13,20,12.20
2009,10,15,13,21,12.10
2009,10,15,13,22,12.10
2009,10,15,13,23,12.00
2009,10,15,13,24,12.00
2009,10,15,13,25,12.00
2009,10,15,13,26,12.10
2009,10,15,13,27,12.10
2009,10,15,13,28,12.10
2009,10,15,13,29,12.10
2009,10,15,13,30,12.10
2009,10,15,13,31,12.10
2009,10,15,13,32,12.10
2009,10,15,13,33,12.20
2009,10,15,13,34,12.20
2009,10,15,13,35,12.20
2009,10,15,13,36,12.20
2009,10,15,13,37,12.20
2009,10,15,13,38,12.20
2009,10,15,13,39,12.20
2009,10,15,13,40,12.20
2009,10,15,13,41,12.20
2009,10,15,13,42,12.20
2009,10,15,13,43,12.20
2009,10,15,13,44,12.20
2009,10,15,13,45,12.20
2009,10,15,13,46,12.20
2009,10,15,13,47,12.10
2009,10,15,13,48,12.10
2009,10,15,13,49,12.10
2009,10,15,13,50,12.10
2009,10,15,13,51,12.10
2009,10,15,13,52,12.10
2009,10,15,13,53,12.10
2009,10,15,13,54,12.20
2009,10,15,13,55,12.20
2009,10,15,13,56,12.20
2009,10,15,13,57,12.20
2009,10,15,13,58,12.20
2009,10,15,13,59,12.30
2009,10,15,14,00,12.30
2009,10,15,14,01,12.30
2009,10,15,14,02,12.40
2009,10,15,14,03,12.40
2009,10,15,14,04,12.40
2009,10,15,14,05,12.40
2009,10,15,14,06,12.40
2009,10,15,14,07,12.40
2009,10,15,14,08,12.40
2009,10,15,14,09,12.40
2009,10,15,14,10,12.40
2009,10,15,14,11,12.50
2009,10,15,14,12,12.50
2009,10,15,14,13,12.50
2009,10,15,14,14,12.50
2009,10,15,14,15,12.60
2009,10,15,14,16,12.60
2009,10,15,14,17,12.60
2009,10,15,14,18,12.60
2009,10,15,14,19,12.70
2009,10,15,14,20,12.70
2009,10,15,14,21,12.70
2009,10,15,14,22,12.70
2009,10,15,14,23,12.80
2009,10,15,14,24,12.80
2009,10,15,14,25,12.80
2009,10,15,14,26,12.90
2009,10,15,14,27,12.90
2009,10,15,14,28,12.90
2009,10,15,14,29,12.90
2009,10,15,14,30,12.90
2009,10,15,14,31,12.90
2009,10,15,14,32,12.90
2009,10,15,14,33,12.90
2009,10,15,14,34,12.90
2009,10,15,14,35,12.90
2009,10,15,14,36,12.90
2009,10,15,14,37,13.00
2009,10,15,14,38,13.00
2009,10,15,14,39,13.00
2009,10,15,14,40,13.00
2009,10,15,14,41,13.00
2009,10,15,14,42,13.00
2009,10,15,14,43,13.00
2009,10,15,14,44,13.00
2009,10,15,14,45,13.10
2009,10,15,14,46,13.10
2009,10,15,14,47,13.20
2009,10,15,14,48,13.20
2009,10,15,14,49,13.20
2009,10,15,14,50,13.30
2009,10,15,14,51,13.30
2009,10,15,14,52,13.30
2009,10,15,14,53,13.40
2009,10,15,14,54,13.40
2009,10,15,14,55,13.40
2009,10,15,14,56,13.40
2009,10,15,14,57,13.40
2009,10,15,14,58,13.40
2009,10,15,14,59,13.50
2009,10,15,15,00,13.50
2009,10,15,15,01,13.60
2009,10,15,15,02,13.60
2009,10,15,15,03,13.70
2009,10,15,15,04,13.70
2009,10,15,15,05,13.70
2009,10,15,15,06,13.80
2009,10,15,15,07,13.80
2009,10,15,15,08,13.80
2009,10,15,15,09,13.80
2009,10,15,15,10,13.90
2009,10,15,15,11,13.90
2009,10,15,15,12,13.90
2009,10,15,15,13,13.80
2009,10,15,15,14,13.80
2009,10,15,15,15,13.70
2009,10,15,15,16,13.60
2009,10,15,15,17,13.60
2009,10,15,15,18,13.60
2009,10,15,15,19,13.50
2009,10,15,15,20,13.50
2009,10,15,15,21,13.40
2009,10,15,15,22,13.30
2009,10,15,15,23,13.30
2009,10,15,15,24,13.20
2009,10,15,15,25,13.20
2009,10,15,15,26,13.20
2009,10,15,15,27,13.20
2009,10,15,15,28,13.20
2009,10,15,15,29,13.20
2009,10,15,15,30,13.30
2009,10,15,15,31,13.20
2009,10,15,15,32,13.20
2009,10,15,15,33,13.20
2009,10,15,15,34,13.30
2009,10,15,15,35,13.30
2009,10,15,15,36,13.20
2009,10,15,15,37,13.20
2009,10,15,15,38,13.20
2009,10,15,15,39,13.20
2009,10,15,15,40,13.20
2009,10,15,15,41,13.20
2009,10,15,15,42,13.10
2009,10,15,15,43,13.20
2009,10,15,15,44,13.20
2009,10,15,15,45,13.10
2009,10,15,15,46,13.10
2009,10,15,15,47,13.10
2009,10,15,15,48,13.10
2009,10,15,15,49,13.10
2009,10,15,15,50,13.00
2009,10,15,15,51,13.00
2009,10,15,15,52,13.00
2009,10,15,15,53,13.00
2009,10,15,15,54,13.00
2009,10,15,15,55,13.00
2009,10,15,15,56,13.00
2009,10,15,15,57,13.00
2009,10,15,15,58,13.00
2009,10,15,15,59,13.00
2009,10,15,16,00,13.10
2009,10,15,16,01,13.10
2009,10,15,16,02,13.10
2009,10,15,16,03,13.10
2009,10,15,16,04,13.20
2009,10,15,16,05,13.20
2009,10,15,16,06,13.20
2009,10,15,16,07,13.20
2009,10,15,16,08,13.20
2009,10,15,16,09,13.20
2009,10,15,16,10,13.20
2009,10,15,16,11,13.20
2009,10,15,16,12,13.20
2009,10,15,16,13,13.10
2009,10,15,16,14,13.10
2009,10,15,16,15,13.10
2009,10,15,16,16,13.10
2009,10,15,16,17,13.10
2009,10,15,16,18,13.10
2009,10,15,16,19,13.10
2009,10,15,16,20,13.10
2009,10,15,16,21,13.10
2009,10,15,16,22,13.10
2009,10,15,16,23,13.10
2009,10,15,16,24,13.10
2009,10,15,16,25,13.20
2009,10,15,16,26,13.20
2009,10,15,16,27,13.20
2009,10,15,16,28,13.20
2009,10,15,16,29,13.20
2009,10,15,16,30,13.20
2009,10,15,16,31,13.20
2009,10,15,16,32,13.20
2009,10,15,16,33,13.20
2009,10,15,16,34,13.20
2009,10,15,16,35,13.20
2009,10,15,16,36,13.20
2009,10,15,16,37,13.20
2009,10,15,16,38,13.20
2009,10,15,16,39,13.20
2009,10,15,16,40,13.10
2009,10,15,16,41,13.10
2009,10,15,16,42,13.20
2009,10,15,16,43,13.10
2009,10,15,16,44,13.10
2009,10,15,16,45,13.10
2009,10,15,16,46,13.10
2009,10,15,16,47,13.20
2009,10,15,16,48,13.10
2009,10,15,16,49,13.20
2009,10,15,16,50,13.10
2009,10,15,16,51,13.10
2009,10,15,16,52,13.10
2009,10,15,16,53,13.10
2009,10,15,16,54,13.20
2009,10,15,16,55,13.10
2009,10,15,16,56,13.10
2009,10,15,16,57,13.10
2009,10,15,16,58,13.10
2009,10,15,16,59,13.10
2009,10,15,17,00,13.10
2009,10,15,17,01,13.10
2009,10,15,17,02,13.10
2009,10,15,17,03,13.10
2009,10,15,17,04,13.10
2009,10,15,17,05,13.10
2009,10,15,17,06,13.10
2009,10,15,17,07,13.10
2009,10,15,17,08,13.10
2009,10,15,17,09,13.10
2009,10,15,17,10,13.10
2009,10,15,17,11,13.10
2009,10,15,17,12,13.10
2009,10,15,17,13,13.10
2009,10,15,17,14,13.10
2009,10,15,17,15,13.10
2009,10,15,17,16,13.10
2009,10,15,17,17,13.10
2009,10,15,17,18,13.10
2009,10,15,17,19,13.00
2009,10,15,17,20,13.10
2009,10,15,17,21,13.00
2009,10,15,17,22,13.00
2009,10,15,17,23,13.00
2009,10,15,17,24,13.00
2009,10,15,17,25,13.00
2009,10,15,17,26,13.00
2009,10,15,17,27,13.00
2009,10,15,17,28,13.00
2009,10,15,17,29,13.00
2009,10,15,17,30,13.00
2009,10,15,17,31,13.00
2009,10,15,17,32,13.00
2009,10,15,17,33,13.00
2009,10,15,17,34,12.90
2009,10,15,17,35,12.90
2009,10,15,17,36,12.90
2009,10,15,17,37,12.90
2009,10,15,17,38,12.80
2009,10,15,17,39,12.80
2009,10,15,17,40,12.80
2009,10,15,17,41,12.80
2009,10,15,17,42,12.80
2009,10,15,17,43,12.80
2009,10,15,17,44,12.80
2009,10,15,17,45,12.80
2009,10,15,17,46,12.70
2009,10,15,17,47,12.70
2009,10,15,17,48,12.70
2009,10,15,17,49,12.70
2009,10,15,17,50,12.70
2009,10,15,17,51,12.70
2009,10,15,17,52,12.70
2009,10,15,17,56,12.70
2009,10,15,17,57,12.70
2009,10,15,17,58,12.70
2009,10,15,17,59,12.60
2009,10,15,18,00,12.60
2009,10,15,18,01,12.60
2009,10,15,18,02,12.60
2009,10,15,18,03,12.60
2009,10,15,18,04,12.60
2009,10,15,18,05,12.60
2009,10,15,18,06,12.60
2009,10,15,18,07,12.60
2009,10,15,18,08,12.60
2009,10,15,18,09,12.50
2009,10,15,18,10,12.50
2009,10,15,18,11,12.50
2009,10,15,18,12,12.50
2009,10,15,18,13,12.50
2009,10,15,18,14,12.40
2009,10,15,18,15,12.40
2009,10,15,18,16,12.40
2009,10,15,18,17,12.40
2009,10,15,18,18,12.40
2009,10,15,18,19,12.40
2009,10,15,18,20,12.40
2009,10,15,18,21,12.40
2009,10,15,18,22,12.40
2009,10,15,18,23,12.40
2009,10,15,18,24,12.40
2009,10,15,18,25,12.40
2009,10,15,18,26,12.40
2009,10,15,18,27,12.40
2009,10,15,18,28,12.40
2009,10,15,18,29,12.40
2009,10,15,18,30,12.40
2009,10,15,18,31,12.40
2009,10,15,18,32,12.40
2009,10,15,18,33,12.40
2009,10,15,18,34,12.30
2009,10,15,18,35,12.30
2009,10,15,18,36,12.30
2009,10,15,18,37,12.30
2009,10,15,18,38,12.30
2009,10,15,18,39,12.30
2009,10,15,18,40,12.30
2009,10,15,18,41,12.20
2009,10,15,18,42,12.20
2009,10,15,18,43,12.20
2009,10,15,18,44,12.20
2009,10,15,18,45,12.10
2009,10,15,18,46,12.10
2009,10,15,18,47,12.10
2009,10,15,18,48,12.10
2009,10,15,18,49,12.00
2009,10,15,18,50,12.00
2009,10,15,18,51,12.00
2009,10,15,18,52,12.00
2009,10,15,18,53,12.00
2009,10,15,18,54,11.90
2009,10,15,18,55,11.90
2009,10,15,18,56,12.00
2009,10,15,18,57,12.00
2009,10,15,18,58,11.90
2009,10,15,18,59,11.90
2009,10,15,19,00,11.90
2009,10,15,19,01,12.00
2009,10,15,19,02,12.00
2009,10,15,19,03,12.00
2009,10,15,19,04,12.00
2009,10,15,19,05,12.00
2009,10,15,19,06,12.00
2009,10,15,19,07,12.00
2009,10,15,19,08,12.00
2009,10,15,19,09,12.00
2009,10,15,19,10,12.00
2009,10,15,19,11,12.00
2009,10,15,19,12,12.00
2009,10,15,19,13,11.90
2009,10,15,19,14,11.90
2009,10,15,19,15,11.90
2009,10,15,19,16,11.90
2009,10,15,19,17,11.90
2009,10,15,19,18,11.90
2009,10,15,19,19,11.80
2009,10,15,19,20,11.80
2009,10,15,19,21,11.80
2009,10,15,19,22,11.80
2009,10,15,19,23,11.70
2009,10,15,19,24,11.70
2009,10,15,19,25,11.70
2009,10,15,19,26,11.70
2009,10,15,19,27,11.70
2009,10,15,19,28,11.60
2009,10,15,19,29,11.60
2009,10,15,19,30,11.60
2009,10,15,19,31,11.60
2009,10,15,19,32,11.60
2009,10,15,19,33,11.60
2009,10,15,19,34,11.60
2009,10,15,19,35,11.60
2009,10,15,19,36,11.60
2009,10,15,19,37,11.60
2009,10,15,19,38,11.60
2009,10,15,19,39,11.60
2009,10,15,19,40,11.60
2009,10,15,19,41,11.60
2009,10,15,19,42,11.60
2009,10,15,19,43,11.50
2009,10,15,19,44,11.50
2009,10,15,19,45,11.50
2009,10,15,19,46,11.50
2009,10,15,19,47,11.40
2009,10,15,19,48,11.40
2009,10,15,19,49,11.40
2009,10,15,19,50,11.40
2009,10,15,19,51,11.40
2009,10,15,19,52,11.40
2009,10,15,19,53,11.40
2009,10,15,19,54,11.30
2009,10,15,19,55,11.30
2009,10,15,19,56,11.30
2009,10,15,19,57,11.30
2009,10,15,19,58,11.30
2009,10,15,19,59,11.30
2009,10,15,20,00,11.20
2009,10,15,20,01,11.20
2009,10,15,20,02,11.20
2009,10,15,20,03,11.20
2009,10,15,20,04,11.20
2009,10,15,20,05,11.20
2009,10,15,20,06,11.20
2009,10,15,20,07,11.20
2009,10,15,20,08,11.20
2009,10,15,20,09,11.20
2009,10,15,20,10,11.20
2009,10,15,20,11,11.20
2009,10,15,20,12,11.10
2009,10,15,20,13,11.10
2009,10,15,20,14,11.10
2009,10,15,20,15,11.10
2009,10,15,20,16,11.10
2009,10,15,20,17,11.10
2009,10,15,20,18,11.10
2009,10,15,20,19,11.10
2009,10,15,20,20,11.00
2009,10,15,20,21,11.00
2009,10,15,20,22,11.00
2009,10,15,20,23,11.00
2009,10,15,20,24,11.00
2009,10,15,20,25,11.00
2009,10,15,20,26,11.00
2009,10,15,20,27,11.00
2009,10,15,20,28,11.00
2009,10,15,20,29,11.00
2009,10,15,20,30,11.00
2009,10,15,20,31,11.00
2009,10,15,20,32,11.00
2009,10,15,20,33,11.00
2009,10,15,20,34,11.00
2009,10,15,20,35,11.00
2009,10,15,20,36,11.00
2009,10,15,20,37,11.00
2009,10,15,20,38,11.00
2009,10,15,20,39,11.00
2009,10,15,20,40,11.00
2009,10,15,20,41,11.00
2009,10,15,20,42,11.00
2009,10,15,20,43,11.00
2009,10,15,20,44,11.00
2009,10,15,20,45,11.00
2009,10,15,20,46,11.00
2009,10,15,20,47,11.00
2009,10,15,20,48,11.00
2009,10,15,20,49,10.90
2009,10,15,20,50,10.90
2009,10,15,20,51,10.90
2009,10,15,20,52,10.90
2009,10,15,20,53,10.90
2009,10,15,20,54,10.90
2009,10,15,20,55,10.90
2009,10,15,20,56,10.90
2009,10,15,20,57,10.90
2009,10,15,20,58,10.90
2009,10,15,20,59,10.90
2009,10,15,21,00,10.90
2009,10,15,21,01,10.90
2009,10,15,21,02,10.80
2009,10,15,21,03,10.80
2009,10,15,21,04,10.80
2009,10,15,21,05,10.80
2009,10,15,21,06,10.90
2009,10,15,21,07,10.80
2009,10,15,21,08,10.80
2009,10,15,21,09,10.80
2009,10,15,21,10,10.80
2009,10,15,21,11,10.80
2009,10,15,21,12,10.80
2009,10,15,21,13,10.80
2009,10,15,21,14,10.80
2009,10,15,21,15,10.80
2009,10,15,21,16,10.80
2009,10,15,21,17,10.80
2009,10,15,21,18,10.80
2009,10,15,21,19,10.80
2009,10,15,21,20,10.80
2009,10,15,21,21,10.80
2009,10,15,21,22,10.80
2009,10,15,21,23,10.80
2009,10,15,21,24,10.80
2009,10,15,21,25,10.80
2009,10,15,21,26,10.80
2009,10,15,21,27,10.80
2009,10,15,21,28,10.80
2009,10,15,21,29,10.80
2009,10,15,21,30,10.80
2009,10,15,21,31,10.80
2009,10,15,21,32,10.80
2009,10,15,21,33,10.80
2009,10,15,21,34,10.80
2009,10,15,21,35,10.80
2009,10,15,21,36,10.80
2009,10,15,21,37,10.80
2009,10,15,21,38,10.90
2009,10,15,21,39,10.90
2009,10,15,21,40,10.90
2009,10,15,21,41,10.90
2009,10,15,21,42,10.90
2009,10,15,21,43,10.90
2009,10,15,21,44,10.90
2009,10,15,21,45,10.90
2009,10,15,21,46,10.90
2009,10,15,21,47,10.90
2009,10,15,21,48,10.90
2009,10,15,21,49,10.90
2009,10,15,21,50,10.80
2009,10,15,21,51,10.80
2009,10,15,21,52,10.80
2009,10,15,21,53,10.80
2009,10,15,21,54,10.80
2009,10,15,21,55,10.80
2009,10,15,21,56,10.80
2009,10,15,21,57,10.80
2009,10,15,21,58,10.80
2009,10,15,21,59,10.80
2009,10,15,22,00,10.80
2009,10,15,22,01,10.80
2009,10,15,22,02,10.80
2009,10,15,22,03,10.80
2009,10,15,22,04,10.80
2009,10,15,22,05,10.80
2009,10,15,22,06,10.80
2009,10,15,22,07,10.80
2009,10,15,22,08,10.80
2009,10,15,22,09,10.80
2009,10,15,22,10,10.80
2009,10,15,22,11,10.80
2009,10,15,22,12,10.80
2009,10,15,22,13,10.80
2009,10,15,22,14,10.80
2009,10,15,22,15,10.80
2009,10,15,22,16,10.90
2009,10,15,22,17,10.80
2009,10,15,22,18,10.90
2009,10,15,22,19,10.90
2009,10,15,22,20,10.90
2009,10,15,22,21,10.90
2009,10,15,22,22,10.90
2009,10,15,22,23,10.90
2009,10,15,22,24,10.90
2009,10,15,22,25,10.90
2009,10,15,22,26,10.90
2009,10,15,22,27,10.90
2009,10,15,22,28,10.90
2009,10,15,22,29,10.90
2009,10,15,22,30,10.90
2009,10,15,22,31,10.90
2009,10,15,22,32,10.90
2009,10,15,22,33,10.90
2009,10,15,22,34,10.90
2009,10,15,22,35,10.90
2009,10,15,22,36,10.90
2009,10,15,22,37,10.90
2009,10,15,22,38,10.90
2009,10,15,22,39,10.90
2009,10,15,22,40,10.90
2009,10,15,22,41,10.90
2009,10,15,22,42,10.90
2009,10,15,22,43,10.90
2009,10,15,22,44,10.90
2009,10,15,22,45,11.00
2009,10,15,22,46,11.00
2009,10,15,22,47,10.90
2009,10,15,22,48,10.90
2009,10,15,22,49,10.90
2009,10,15,22,50,10.90
2009,10,15,22,51,10.90
2009,10,15,22,52,10.90
2009,10,15,22,53,10.90
2009,10,15,22,54,10.90
2009,10,15,22,55,10.90
2009,10,15,22,56,10.90
2009,10,15,22,57,10.90
2009,10,15,22,58,10.90
2009,10,15,22,59,10.90
2009,10,15,23,00,10.90
2009,10,15,23,01,10.90
2009,10,15,23,02,10.90
2009,10,15,23,03,10.90
2009,10,15,23,04,10.90
2009,10,15,23,05,10.90
2009,10,15,23,06,10.90
2009,10,15,23,07,10.90
2009,10,15,23,08,10.90
2009,10,15,23,09,10.90
2009,10,15,23,10,10.90
2009,10,15,23,11,10.90
2009,10,15,23,12,10.90
2009,10,15,23,13,10.90
2009,10,15,23,14,10.90
2009,10,15,23,15,10.90
2009,10,15,23,16,10.90
2009,10,15,23,17,10.90
2009,10,15,23,18,10.90
2009,10,15,23,19,10.90
2009,10,15,23,20,10.90
2009,10,15,23,21,10.90
2009,10,15,23,22,10.90
2009,10,15,23,23,10.90
2009,10,15,23,24,10.90
2009,10,15,23,25,10.90
2009,10,15,23,26,10.80
2009,10,15,23,27,10.80
2009,10,15,23,28,10.90
2009,10,15,23,29,10.80
2009,10,15,23,30,10.80
2009,10,15,23,31,10.80
2009,10,15,23,32,10.80
2009,10,15,23,33,10.80
2009,10,15,23,34,10.80
2009,10,15,23,35,10.80
2009,10,15,23,36,10.80
2009,10,15,23,37,10.80
2009,10,15,23,38,10.80
2009,10,15,23,39,10.90
2009,10,15,23,40,10.80
2009,10,15,23,41,10.90
2009,10,15,23,42,10.90
2009,10,15,23,43,10.90
2009,10,15,23,44,10.90
2009,10,15,23,45,10.90
2009,10,15,23,46,10.90
2009,10,15,23,47,10.90
2009,10,15,23,48,10.90
2009,10,15,23,49,10.90
2009,10,15,23,50,10.90
2009,10,15,23,51,10.90
2009,10,15,23,52,10.90
2009,10,15,23,53,10.90
2009,10,15,23,54,10.90
2009,10,15,23,55,10.90
2009,10,15,23,56,10.90
2009,10,15,23,57,10.80
2009,10,15,23,58,10.80
2009,10,15,23,59,10.80
